Location: Treviso
(45.6669°N, 12.2430°E)
Time: 16:26:26
(UTC+02:00)

ISS - Pass Details

Date: 21 May 2018
Orbit: 402 x 406 km, 51.6° (Epoch: 19 June)

Event Time Altitude Azimuth Distance (km) Brightness Sun altitude
Rises 03:53:17 0° 298° (WNW) 2,321 -0.1 -14.2°
Reaches altitude 10° 03:55:22 10° 298° (WNW) 1,459 -1.1 -14.0°
Maximum altitude 03:58:38 88° 218° (SW) 407 -3.9 -13.6°
Drops below altitude 10° 04:01:54 10° 120° (ESE) 1,453 -0.9 -13.2°
Sets 04:03:58 0° 120° (ESE) 2,309 0.2 -13.0°
